Baltimore, MD

7:10 PM EST on February 25, 2017 (GMT -0500)
Baltimore-Washington International

Weather History for KBWI - April, 2013

Change the Weather History Date:

Wednesday, April 24, 2013

  Actual Average Record
Temperature  
Mean Temperature 57 °F 56 °F  
Max Temperature 73 °F 68 °F 93 °F (1960)
Min Temperature 41 °F 45 °F 32 °F (2003)
Degree Days  
Heating Degree Days 8 9  
Month to date heating degree days 249 304  
Since 1 July heating degree days 4290 4565  
Cooling Degree Days 0 1  
Month to date cooling degree days 26 6  
Year to date cooling degree days 26 7  
Growing Degree Days 7 (Base 50)    
Moisture  
Dew Point 48 °F    
Average Humidity 72    
Maximum Humidity 100    
Minimum Humidity 44    
Precipitation  
Precipitation T in 0.10 in 1.18 in (1910)
Month to date precipitation 1.72 2.56  
Year to date precipitation 9.95 12.41  
Snow  
Snow 0.00 in 0.00 in T in (1930)
Month to date snowfall T 0.0  
Since 1 July snowfall 8.0 20.1  
Snow Depth 0.00 in    
Sea Level Pressure  
Sea Level Pressure 30.00 in    
Wind  
Wind Speed 7 mph (South)    
Max Wind Speed 26 mph    
Max Gust Speed 40 mph    
Visibility 7 miles    
Events Rain    
T = Trace of Precipitation, MM = Missing Value Source: NWS Daily Summary

Daily Weather History Graph

Daily Weather History Graph

Search for Another Location

Airport or City:

Trip Planner

Search our weather history database for the weather conditions in past years. The results will help you decide how hot, cold, wet, or windy it might be!

Date:

Astronomy

Apr. 24, 2013 Rise Set
Actual Time 6:16 AM EDT 7:53 PM EDT
Civil Twilight 5:48 AM EDT 8:21 PM EDT
Nautical Twilight 5:14 AM EDT 8:55 PM EDT
Astronomical Twilight 4:38 AM EDT 9:32 PM EDT
Moon 6:54 PM EDT (4/24) 5:18 AM EDT (4/24)
Length of Visible Light 14h 32m
Length of Day
13h 36m
Waxing Gibbous, 98% of the Moon is Illuminated
Apr 24
Waxing Gibbous
Apr 25
Full
May 2
Last Quarter
May 9
New
May 18
First Quarter

Hourly Weather History & Observations

Time (EDT) Temp. Dew Point Humidity Pressure Visibility Wind Dir Wind Speed Gust Speed Precip Events Conditions
12:54 AM 46.9 °F 43.0 °F 86% 30.12 in 10.0 mi ESE 3.5 mph - N/A   Partly Cloudy
1:54 AM 45.0 °F 42.1 °F 90% 30.12 in 8.0 mi Calm Calm - N/A   Clear
2:54 AM 42.1 °F 41.0 °F 96% 30.11 in 8.0 mi Calm Calm - N/A   Clear
3:54 AM 43.0 °F 39.9 °F 89% 30.10 in 6.0 mi Calm Calm - N/A   Partly Cloudy
4:00 AM 42.8 °F 39.2 °F 87% 30.10 in 6.0 mi Calm Calm - N/A   Partly Cloudy
4:05 AM 42.8 °F 41.0 °F 93% 30.09 in 5.0 mi Calm Calm - N/A   Mostly Cloudy
4:14 AM 42.8 °F 41.0 °F 93% 30.09 in 5.0 mi Calm Calm - N/A   Scattered Clouds
4:54 AM 42.1 °F 41.0 °F 96% 30.09 in 5.0 mi Calm Calm - N/A   Scattered Clouds
5:13 AM 42.8 °F 39.2 °F 87% 30.09 in 3.0 mi Calm Calm - N/A   Mostly Cloudy
5:54 AM 42.8 °F 42.8 °F 100% 30.09 in 3.0 mi Calm Calm - N/A   Overcast
6:15 AM 44.6 °F 42.8 °F 93% 30.08 in 2.0 mi Calm Calm - N/A   Overcast
6:46 AM 44.6 °F 42.8 °F 93% 30.08 in 2.0 mi Calm Calm - N/A   Mostly Cloudy
6:51 AM 44.6 °F 42.8 °F 93% 30.08 in 2.0 mi Calm Calm - N/A   Mostly Cloudy
6:54 AM 45.0 °F 43.0 °F 93% 30.09 in 2.0 mi Calm Calm - N/A   Scattered Clouds
7:37 AM 48.2 °F 46.4 °F 93% 30.07 in 3.0 mi Calm Calm - N/A   Scattered Clouds
7:54 AM 48.9 °F 46.0 °F 90% 30.08 in 3.0 mi Calm Calm - N/A   Scattered Clouds
8:12 AM 50.0 °F 46.4 °F 87% 30.07 in 6.0 mi SSW 3.5 mph - N/A   Scattered Clouds
8:54 AM 53.1 °F 46.9 °F 80% 30.06 in 9.0 mi SSW 5.8 mph - N/A   Scattered Clouds
9:54 AM 57.0 °F 48.0 °F 72% 30.04 in 10.0 mi SSW 5.8 mph - N/A   Scattered Clouds
10:54 AM 62.1 °F 50.0 °F 65% 30.01 in 10.0 mi SSW 9.2 mph - N/A   Scattered Clouds
11:54 AM 66.0 °F 51.1 °F 59% 29.99 in 10.0 mi South 5.8 mph - N/A   Scattered Clouds
12:54 PM 71.1 °F 51.1 °F 49% 29.94 in 10.0 mi South 8.1 mph - N/A   Scattered Clouds
1:54 PM 71.1 °F 54.0 °F 55% 29.91 in 10.0 mi ESE 15.0 mph - N/A   Mostly Cloudy
2:54 PM 70.0 °F 53.1 °F 55% 29.88 in 10.0 mi SSE 11.5 mph 18.4 mph N/A   Mostly Cloudy
3:54 PM 73.0 °F 54.0 °F 51% 29.86 in 10.0 mi SE 12.7 mph - N/A   Mostly Cloudy
4:54 PM 69.1 °F 54.0 °F 58% 29.82 in 10.0 mi SE 11.5 mph - N/A   Mostly Cloudy
5:54 PM 68.0 °F 54.0 °F 61% 29.81 in 10.0 mi SSE 9.2 mph - N/A   Overcast
6:54 PM 70.0 °F 53.1 °F 55% 29.78 in 10.0 mi SSE 6.9 mph - N/A   Overcast
7:54 PM 68.0 °F 53.6 °F 60% 29.81 in 10.0 mi SE 4.6 mph - N/A   Mostly Cloudy
8:54 PM 73.0 °F 50.0 °F 44% 29.84 in 10.0 mi SSW 11.5 mph 17.3 mph N/A   Overcast
9:54 PM 71.1 °F 53.1 °F 53% 29.87 in 10.0 mi WNW 8.1 mph 21.9 mph N/A   Overcast
10:54 PM 66.0 °F 55.9 °F 70% 29.89 in 10.0 mi NW 4.6 mph - N/A   Scattered Clouds
11:38 PM 66.2 °F 55.4 °F 68% 29.93 in 10.0 mi WNW 21.9 mph 31.1 mph 0.00 in Rain Light Rain
11:54 PM 63.0 °F 55.0 °F 75% 29.95 in 10.0 mi NW 13.8 mph 28.8 mph 0.00 in   Overcast